ICA2033 LFMT-LFKC

Flight info

Callsign ICA2033
Flight time 1h 0m
Altitude 21000
Route MARRI Y25 SALIN Y341 BULTO UY342 PADKO DCT MERLU A3 SODRI
Aircraft AT76/M-SDFGIRY/S

Departure

Time 2026-05-08 20:14
Airport Montpellier-Méditerranée Airport (LFMT)

Arrival

Time 2026-05-08 21:14
Airport Calvi Sainte Catherine Airport (LFKC)
Time Latitude Longitude Altitude Speed Heading
2026-05-08 19:25 43.58889 3.96322 -3 ft 0 kts 360°
2026-05-08 19:56 43.58874 3.96323 26 ft 4 kts 339°
2026-05-08 19:57 43.58858 3.96323 24 ft 4 kts 32°
2026-05-08 19:57 43.58850 3.96304 26 ft 4 kts 119°
2026-05-08 19:57 43.58861 3.96277 26 ft 0 kts 114°
2026-05-08 20:04 43.58856 3.96291 27 ft 5 kts 114°
2026-05-08 20:04 43.58828 3.96342 26 ft 8 kts 139°
2026-05-08 20:05 43.58779 3.96346 24 ft 7 kts 199°
2026-05-08 20:05 43.58732 3.96310 25 ft 8 kts 208°
2026-05-08 20:05 43.58682 3.96261 24 ft 9 kts 217°
2026-05-08 20:05 43.58625 3.96207 21 ft 11 kts 216°
2026-05-08 20:06 43.58563 3.96146 20 ft 11 kts 213°
2026-05-08 20:06 43.58501 3.96089 20 ft 10 kts 214°
2026-05-08 20:06 43.58442 3.96035 20 ft 10 kts 214°
2026-05-08 20:06 43.58387 3.95983 20 ft 11 kts 215°
2026-05-08 20:07 43.58330 3.95942 21 ft 13 kts 200°
2026-05-08 20:07 43.58258 3.95919 21 ft 10 kts 171°
2026-05-08 20:07 43.58203 3.95979 20 ft 11 kts 127°
2026-05-08 20:07 43.58161 3.96067 22 ft 11 kts 124°
2026-05-08 20:08 43.58116 3.96159 20 ft 12 kts 124°
2026-05-08 20:08 43.58068 3.96252 20 ft 12 kts 125°
2026-05-08 20:08 43.58020 3.96347 26 ft 12 kts 126°
2026-05-08 20:08 43.57972 3.96440 18 ft 12 kts 124°
2026-05-08 20:09 43.57925 3.96535 18 ft 12 kts 125°
2026-05-08 20:09 43.57874 3.96633 15 ft 13 kts 125°
2026-05-08 20:09 43.57823 3.96733 14 ft 13 kts 124°
2026-05-08 20:09 43.57773 3.96833 13 ft 13 kts 123°
2026-05-08 20:10 43.57722 3.96937 13 ft 13 kts 124°
2026-05-08 20:10 43.57671 3.97041 15 ft 14 kts 124°
2026-05-08 20:10 43.57600 3.97180 15 ft 21 kts 125°
2026-05-08 20:10 43.57517 3.97344 15 ft 19 kts 126°
2026-05-08 20:11 43.57446 3.97481 14 ft 16 kts 124°
2026-05-08 20:11 43.57386 3.97603 14 ft 15 kts 125°
2026-05-08 20:11 43.57327 3.97720 14 ft 15 kts 124°
2026-05-08 20:11 43.57265 3.97844 14 ft 16 kts 125°
2026-05-08 20:12 43.57201 3.97972 13 ft 16 kts 123°
2026-05-08 20:12 43.57197 3.98119 13 ft 17 kts 53°
2026-05-08 20:12 43.57304 3.98153 14 ft 15 kts 331°
2026-05-08 20:12 43.57331 3.98113 14 ft 0 kts 303°
2026-05-08 20:13 43.57408 3.97955 13 ft 57 kts 304°
2026-05-08 20:13 43.57771 3.97226 35 ft 122 kts 306°
2026-05-08 20:13 43.58311 3.96245 518 ft 138 kts 306°
2026-05-08 20:14 43.58949 3.95229 1134 ft 144 kts 323°
2026-05-08 20:14 43.59898 3.94785 1842 ft 146 kts 356°
2026-05-08 20:14 43.60918 3.95023 2462 ft 155 kts 26°
2026-05-08 20:14 43.61766 3.95940 3002 ft 162 kts 52°
2026-05-08 20:15 43.62493 3.97270 3285 ft 191 kts 57°
2026-05-08 20:15 43.63328 3.98843 3591 ft 210 kts 55°
2026-05-08 20:15 43.64243 4.00459 4113 ft 214 kts 53°
2026-05-08 20:15 43.65095 4.02083 4752 ft 207 kts 64°
2026-05-08 20:16 43.65624 4.03937 5213 ft 213 kts 79°
2026-05-08 20:16 43.65653 4.05916 5719 ft 203 kts 112°
2026-05-08 20:16 43.64799 4.07387 6248 ft 198 kts 144°
2026-05-08 20:16 43.63707 4.08569 6728 ft 201 kts 143°
2026-05-08 20:17 43.62646 4.09838 7220 ft 203 kts 139°
2026-05-08 20:17 43.61650 4.11237 7681 ft 206 kts 135°
2026-05-08 20:17 43.60730 4.12761 8194 ft 204 kts 130°
2026-05-08 20:17 43.59906 4.14299 8887 ft 195 kts 129°
2026-05-08 20:18 43.59124 4.15810 9509 ft 193 kts 129°
2026-05-08 20:18 43.58338 4.17329 10051 ft 195 kts 129°
2026-05-08 20:18 43.57540 4.18850 10579 ft 196 kts 129°
2026-05-08 20:18 43.56735 4.20381 11108 ft 198 kts 130°
2026-05-08 20:19 43.56196 4.21395 11459 ft 198 kts 130°
2026-05-08 20:19 43.55374 4.22931 11988 ft 200 kts 130°
2026-05-08 20:19 43.54548 4.24477 12550 ft 201 kts 130°
2026-05-08 20:19 43.53711 4.26031 13091 ft 203 kts 130°
2026-05-08 20:20 43.52872 4.27593 13661 ft 204 kts 130°
2026-05-08 20:20 43.52023 4.29174 14167 ft 206 kts 130°
2026-05-08 20:20 43.51169 4.30766 14636 ft 208 kts 130°
2026-05-08 20:20 43.50301 4.32381 15107 ft 209 kts 131°
2026-05-08 20:21 43.49298 4.33833 15568 ft 210 kts 142°
2026-05-08 20:21 43.48193 4.35159 16086 ft 212 kts 143°
2026-05-08 20:21 43.47070 4.36488 16603 ft 214 kts 143°
2026-05-08 20:21 43.45946 4.37847 17111 ft 217 kts 142°
2026-05-08 20:22 43.44823 4.39257 17607 ft 220 kts 142°
2026-05-08 20:22 43.43698 4.40691 18045 ft 221 kts 142°
2026-05-08 20:22 43.42560 4.42139 18257 ft 224 kts 141°
2026-05-08 20:22 43.41416 4.43597 18464 ft 225 kts 142°
2026-05-08 20:23 43.40282 4.45049 18849 ft 227 kts 142°
2026-05-08 20:23 43.39124 4.46540 19316 ft 229 kts 142°
2026-05-08 20:23 43.38012 4.48136 19739 ft 236 kts 129°
2026-05-08 20:23 43.37199 4.50130 20132 ft 242 kts 121°
2026-05-08 20:24 43.36458 4.52221 20551 ft 245 kts 121°
2026-05-08 20:24 43.35705 4.54344 20903 ft 251 kts 122°
2026-05-08 20:24 43.34871 4.56537 20992 ft 267 kts 123°
2026-05-08 20:24 43.33953 4.58831 21031 ft 281 kts 123°
2026-05-08 20:25 43.32991 4.61234 21049 ft 293 kts 123°
2026-05-08 20:25 43.31995 4.63736 21057 ft 302 kts 123°
2026-05-08 20:25 43.30981 4.66294 21062 ft 309 kts 122°
2026-05-08 20:25 43.29942 4.68901 21062 ft 314 kts 122°
2026-05-08 20:26 43.28978 4.71320 21062 ft 317 kts 122°
2026-05-08 20:26 43.28146 4.74139 21060 ft 323 kts 105°
2026-05-08 20:26 43.27887 4.77217 21063 ft 327 kts 95°
2026-05-08 20:26 43.27814 4.80316 21062 ft 323 kts 94°
2026-05-08 20:27 43.27748 4.83376 21063 ft 317 kts 95°
2026-05-08 20:27 43.27654 4.85646 21065 ft 310 kts 96°
2026-05-08 20:27 43.27489 4.88597 21064 ft 305 kts 97°
2026-05-08 20:27 43.27295 4.91463 21066 ft 300 kts 99°
2026-05-08 20:28 43.27030 4.94285 21065 ft 296 kts 101°
2026-05-08 20:28 43.26738 4.97072 21068 ft 294 kts 101°
2026-05-08 20:28 43.26465 4.99844 21069 ft 292 kts 100°
2026-05-08 20:28 43.26198 5.02603 21069 ft 291 kts 100°
2026-05-08 20:29 43.25933 5.05347 21068 ft 290 kts 100°
2026-05-08 20:29 43.25667 5.08085 21070 ft 289 kts 101°
2026-05-08 20:29 43.25401 5.10812 21072 ft 288 kts 100°
2026-05-08 20:29 43.25135 5.13535 21072 ft 288 kts 100°
2026-05-08 20:30 43.24868 5.16260 21070 ft 287 kts 100°
2026-05-08 20:30 43.24606 5.18934 21072 ft 287 kts 100°
2026-05-08 20:30 43.24338 5.21646 21073 ft 287 kts 100°
2026-05-08 20:30 43.24070 5.24357 21073 ft 287 kts 100°
2026-05-08 20:31 43.23802 5.27070 21074 ft 287 kts 100°
2026-05-08 20:31 43.23535 5.29780 21072 ft 287 kts 100°
2026-05-08 20:31 43.23267 5.32487 21070 ft 287 kts 100°
2026-05-08 20:31 43.23038 5.35206 21074 ft 287 kts 98°
2026-05-08 20:32 43.22874 5.37935 21067 ft 287 kts 96°
2026-05-08 20:32 43.22748 5.40668 21069 ft 287 kts 96°
2026-05-08 20:32 43.22616 5.43400 21072 ft 287 kts 96°
2026-05-08 20:32 43.22484 5.46131 21070 ft 288 kts 96°
2026-05-08 20:33 43.22356 5.48871 21066 ft 287 kts 96°
2026-05-08 20:33 43.22228 5.51601 21069 ft 287 kts 96°
2026-05-08 20:33 43.22094 5.54332 21067 ft 287 kts 96°
2026-05-08 20:33 43.21952 5.57064 21067 ft 288 kts 96°
2026-05-08 20:34 43.21809 5.59799 21060 ft 288 kts 96°
2026-05-08 20:34 43.21664 5.62533 21062 ft 288 kts 96°
2026-05-08 20:34 43.21370 5.68009 21070 ft 288 kts 96°
2026-05-08 20:35 43.21223 5.70745 21063 ft 288 kts 96°
2026-05-08 20:35 43.21072 5.73477 21070 ft 288 kts 96°
2026-05-08 20:35 43.20926 5.76216 21069 ft 288 kts 96°
2026-05-08 20:35 43.20775 5.78949 21070 ft 288 kts 96°
2026-05-08 20:36 43.20625 5.81684 21071 ft 288 kts 96°
2026-05-08 20:36 43.20478 5.84380 21074 ft 288 kts 96°
2026-05-08 20:36 43.20326 5.87118 21072 ft 288 kts 96°
2026-05-08 20:36 43.20174 5.89853 21076 ft 288 kts 96°
2026-05-08 20:37 43.20021 5.92590 21079 ft 288 kts 96°
2026-05-08 20:37 43.19867 5.95332 21076 ft 288 kts 96°
2026-05-08 20:37 43.19713 5.98070 21075 ft 288 kts 96°
2026-05-08 20:37 43.19556 6.00805 21079 ft 288 kts 96°
2026-05-08 20:38 43.19402 6.03544 21071 ft 288 kts 96°
2026-05-08 20:38 43.19247 6.06278 21078 ft 288 kts 96°
2026-05-08 20:38 43.19089 6.09012 21083 ft 288 kts 96°
2026-05-08 20:38 43.18933 6.11743 21083 ft 288 kts 96°
2026-05-08 20:39 43.18774 6.14477 21082 ft 288 kts 96°
2026-05-08 20:39 43.18616 6.17209 21082 ft 288 kts 96°
2026-05-08 20:39 43.18457 6.19941 21077 ft 288 kts 96°
2026-05-08 20:39 43.18298 6.22676 21081 ft 288 kts 96°
2026-05-08 20:40 43.18138 6.25405 21078 ft 287 kts 96°
2026-05-08 20:40 43.17976 6.28134 21078 ft 288 kts 96°
2026-05-08 20:40 43.17812 6.30864 21082 ft 288 kts 96°
2026-05-08 20:40 43.17651 6.33597 21076 ft 288 kts 96°
2026-05-08 20:41 43.17486 6.36329 21072 ft 288 kts 96°
2026-05-08 20:41 43.17323 6.39053 21077 ft 287 kts 96°
2026-05-08 20:41 43.17161 6.41777 21072 ft 287 kts 96°
2026-05-08 20:41 43.16996 6.44504 21076 ft 287 kts 96°
2026-05-08 20:42 43.16831 6.47228 21071 ft 287 kts 96°
2026-05-08 20:42 43.16665 6.49954 21068 ft 287 kts 96°
2026-05-08 20:42 43.16497 6.52675 21071 ft 287 kts 96°
2026-05-08 20:42 43.16332 6.55399 21071 ft 287 kts 96°
2026-05-08 20:43 43.16177 6.57874 21067 ft 287 kts 96°
2026-05-08 20:43 43.16008 6.60628 21071 ft 287 kts 96°
2026-05-08 20:43 43.15842 6.63314 21064 ft 287 kts 96°
2026-05-08 20:43 43.15671 6.66033 21062 ft 287 kts 96°
2026-05-08 20:44 43.15502 6.68755 21059 ft 287 kts 96°
2026-05-08 20:44 43.15329 6.71478 21058 ft 287 kts 96°
2026-05-08 20:44 43.15158 6.74197 21057 ft 286 kts 96°
2026-05-08 20:44 43.14987 6.76919 21052 ft 286 kts 96°
2026-05-08 20:45 43.14813 6.79639 21056 ft 286 kts 96°
2026-05-08 20:45 43.14699 6.81441 21053 ft 286 kts 96°
2026-05-08 20:45 43.14465 6.85073 21054 ft 286 kts 96°
2026-05-08 20:45 43.14291 6.87789 21054 ft 286 kts 96°
2026-05-08 20:46 43.14116 6.90502 21053 ft 287 kts 96°
2026-05-08 20:46 43.13969 6.92779 21054 ft 287 kts 96°
2026-05-08 20:46 43.13794 6.95497 21050 ft 287 kts 96°
2026-05-08 20:46 43.13615 6.98212 21053 ft 287 kts 96°
2026-05-08 20:47 43.13440 7.00897 21051 ft 287 kts 96°
2026-05-08 20:47 43.13261 7.03612 21053 ft 287 kts 96°
2026-05-08 20:47 43.13079 7.06371 21058 ft 287 kts 96°
2026-05-08 20:47 43.12903 7.09054 21056 ft 287 kts 96°
2026-05-08 20:48 43.12721 7.11775 21057 ft 287 kts 96°
2026-05-08 20:48 43.12540 7.14499 21051 ft 287 kts 96°
2026-05-08 20:48 43.12358 7.17219 21056 ft 287 kts 96°
2026-05-08 20:48 43.12175 7.19944 21057 ft 287 kts 96°
2026-05-08 20:49 43.11992 7.22667 21054 ft 288 kts 96°
2026-05-08 20:49 43.11808 7.25394 21057 ft 288 kts 96°
2026-05-08 20:49 43.11621 7.28119 21057 ft 288 kts 96°
2026-05-08 20:49 43.11437 7.30844 21057 ft 288 kts 96°
2026-05-08 20:50 43.11250 7.33572 21055 ft 288 kts 96°
2026-05-08 20:50 43.11058 7.36365 20656 ft 302 kts 96°
2026-05-08 20:50 43.10855 7.39249 20230 ft 304 kts 96°
2026-05-08 20:50 43.10640 7.42124 19805 ft 303 kts 97°
2026-05-08 20:51 43.10426 7.44985 19390 ft 302 kts 97°
2026-05-08 20:51 43.10213 7.47832 18983 ft 300 kts 96°
2026-05-08 20:51 43.10019 7.50564 18596 ft 298 kts 96°
2026-05-08 20:51 43.09833 7.53218 18198 ft 297 kts 96°
2026-05-08 20:52 43.09634 7.56024 17745 ft 295 kts 96°
2026-05-08 20:52 43.09441 7.58775 17301 ft 293 kts 96°
2026-05-08 20:52 43.09244 7.61545 16870 ft 292 kts 96°
2026-05-08 20:52 43.09050 7.64300 16445 ft 290 kts 96°
2026-05-08 20:53 43.08854 7.67036 16047 ft 289 kts 96°
2026-05-08 20:53 43.08659 7.69762 15641 ft 287 kts 96°
2026-05-08 20:53 43.08465 7.72480 15245 ft 286 kts 96°
2026-05-08 20:53 43.08269 7.75178 14853 ft 285 kts 96°
2026-05-08 20:54 43.08074 7.77871 14458 ft 284 kts 96°
2026-05-08 20:54 43.07872 7.80509 14391 ft 271 kts 97°
2026-05-08 20:54 43.07607 7.82996 14388 ft 259 kts 100°
2026-05-08 20:54 43.07300 7.85378 14385 ft 250 kts 101°
2026-05-08 20:55 43.07004 7.87686 14384 ft 243 kts 100°
2026-05-08 20:55 43.06724 7.89939 14377 ft 238 kts 100°
2026-05-08 20:55 43.06454 7.92149 14385 ft 234 kts 100°
2026-05-08 20:55 43.06186 7.94323 14385 ft 230 kts 100°
2026-05-08 20:56 43.05920 7.96473 14386 ft 228 kts 100°
2026-05-08 20:56 43.05658 7.98601 14380 ft 226 kts 100°
2026-05-08 20:56 43.05394 8.00710 14387 ft 224 kts 100°
2026-05-08 20:56 43.05134 8.02808 14384 ft 223 kts 100°
2026-05-08 20:57 43.04874 8.04898 14385 ft 222 kts 100°
2026-05-08 20:57 43.04615 8.06977 14390 ft 222 kts 100°
2026-05-08 20:57 43.04358 8.09052 14391 ft 221 kts 99°
2026-05-08 20:57 43.04150 8.11146 14315 ft 224 kts 97°
2026-05-08 20:58 43.03961 8.13273 14245 ft 226 kts 99°
2026-05-08 20:58 43.03669 8.15389 14210 ft 226 kts 102°
2026-05-08 20:58 43.03342 8.17487 14215 ft 226 kts 102°
2026-05-08 20:58 43.03016 8.19648 14217 ft 240 kts 102°
2026-05-08 20:59 43.02690 8.21943 14221 ft 252 kts 101°
2026-05-08 20:59 43.02379 8.24338 14223 ft 260 kts 100°
2026-05-08 20:59 43.02095 8.26819 14201 ft 267 kts 98°
2026-05-08 20:59 43.01852 8.29322 14205 ft 271 kts 97°
2026-05-08 21:00 43.01624 8.31898 14205 ft 275 kts 96°
2026-05-08 21:00 43.01425 8.34523 14000 ft 284 kts 97°
2026-05-08 21:00 43.01167 8.37242 13636 ft 289 kts 97°
2026-05-08 21:00 43.00897 8.39936 13256 ft 284 kts 98°
2026-05-08 21:01 43.00583 8.42585 12886 ft 281 kts 100°
2026-05-08 21:01 43.00248 8.44952 12567 ft 278 kts 102°
2026-05-08 21:01 42.99870 8.47533 12217 ft 276 kts 101°
2026-05-08 21:01 42.99505 8.50086 11872 ft 273 kts 101°
2026-05-08 21:02 42.99146 8.52620 11539 ft 270 kts 101°
2026-05-08 21:02 42.98791 8.55130 11202 ft 268 kts 101°
2026-05-08 21:02 42.98433 8.57622 10882 ft 266 kts 101°
2026-05-08 21:02 42.98079 8.60090 10562 ft 264 kts 101°
2026-05-08 21:03 42.97729 8.62543 10244 ft 262 kts 101°
2026-05-08 21:03 42.97379 8.64980 9927 ft 261 kts 101°
2026-05-08 21:03 42.97031 8.67400 9588 ft 259 kts 101°
2026-05-08 21:03 42.96686 8.69805 9253 ft 257 kts 101°
2026-05-08 21:04 42.96343 8.72195 8930 ft 256 kts 101°
2026-05-08 21:04 42.96000 8.74571 8612 ft 254 kts 101°
2026-05-08 21:04 42.95524 8.76865 8218 ft 251 kts 118°
2026-05-08 21:04 42.94291 8.78522 7864 ft 253 kts 152°
2026-05-08 21:05 42.92612 8.79187 7519 ft 252 kts 171°
2026-05-08 21:05 42.90858 8.79358 7185 ft 253 kts 179°
2026-05-08 21:05 42.89118 8.79251 6964 ft 244 kts 191°
2026-05-08 21:05 42.87504 8.78602 6629 ft 241 kts 191°
2026-05-08 21:06 42.85835 8.78460 6301 ft 242 kts 181°
2026-05-08 21:06 42.84144 8.78406 5959 ft 244 kts 181°
2026-05-08 21:06 42.82446 8.78529 5612 ft 245 kts 174°
2026-05-08 21:06 42.80749 8.78783 5271 ft 246 kts 173°
2026-05-08 21:07 42.79065 8.79031 4937 ft 233 kts 173°
2026-05-08 21:07 42.77587 8.79197 4806 ft 193 kts 176°
2026-05-08 21:07 42.76289 8.79253 4520 ft 187 kts 178°
2026-05-08 21:07 42.74983 8.79260 4246 ft 190 kts 179°
2026-05-08 21:08 42.73660 8.79247 3969 ft 189 kts 180°
2026-05-08 21:08 42.72802 8.79232 3790 ft 182 kts 180°
2026-05-08 21:08 42.71584 8.79205 3548 ft 168 kts 179°
2026-05-08 21:08 42.70456 8.79192 3279 ft 157 kts 179°
2026-05-08 21:09 42.69402 8.79187 3108 ft 145 kts 178°
2026-05-08 21:09 42.68416 8.79188 2927 ft 139 kts 178°
2026-05-08 21:09 42.67464 8.79196 2742 ft 135 kts 178°
2026-05-08 21:09 42.66533 8.79204 2564 ft 133 kts 178°
2026-05-08 21:10 42.65612 8.79210 2388 ft 131 kts 178°
2026-05-08 21:10 42.64703 8.79218 2219 ft 130 kts 178°
2026-05-08 21:10 42.63805 8.79221 2056 ft 129 kts 178°
2026-05-08 21:10 42.62910 8.79225 1882 ft 128 kts 178°
2026-05-08 21:11 42.62060 8.79216 1806 ft 114 kts 179°
2026-05-08 21:11 42.61298 8.79207 1724 ft 112 kts 177°
2026-05-08 21:11 42.60531 8.79251 1678 ft 114 kts 177°
2026-05-08 21:11 42.59669 8.79271 1707 ft 116 kts 179°
2026-05-08 21:12 42.58907 8.79251 1634 ft 106 kts 179°
2026-05-08 21:12 42.58134 8.79280 1477 ft 107 kts 176°
2026-05-08 21:12 42.57412 8.79308 1286 ft 103 kts 178°
2026-05-08 21:12 42.56684 8.79299 1078 ft 101 kts 180°
2026-05-08 21:13 42.55991 8.79279 802 ft 102 kts 179°
2026-05-08 21:13 42.55258 8.79291 602 ft 100 kts 180°
2026-05-08 21:13 42.54573 8.79292 338 ft 98 kts 180°
2026-05-08 21:13 42.53898 8.79292 122 ft 93 kts 181°
2026-05-08 21:14 42.53344 8.79292 126 ft 66 kts 180°
2026-05-08 21:14 42.53050 8.79296 146 ft 30 kts 180°
2026-05-08 21:14 42.52882 8.79300 159 ft 27 kts 179°
2026-05-08 21:14 42.52668 8.79302 176 ft 23 kts 180°
2026-05-08 21:15 42.52542 8.79298 194 ft 14 kts 180°
2026-05-08 21:15 42.52421 8.79301 192 ft 29 kts 179°
2026-05-08 21:15 42.52297 8.79297 201 ft 10 kts 181°
2026-05-08 21:15 42.52250 8.79270 211 ft 6 kts 238°
2026-05-08 21:16 42.52261 8.79173 210 ft 13 kts 324°
2026-05-08 21:16 42.52371 8.79160 193 ft 19 kts
2026-05-08 21:16 42.52412 8.79159 191 ft 5 kts 348°
2026-05-08 21:16 42.52427 8.79129 195 ft 1 kts 283°
2026-05-08 21:17 42.52425 8.79106 190 ft 0 kts 261°
2026-05-08 21:17 42.52425 8.79105 190 ft 0 kts 260°
2026-05-08 21:17 42.52420 8.79100 191 ft 2 kts 209°
2026-05-08 21:18 42.52398 8.79076 197 ft 4 kts 227°
2026-05-08 21:18 42.52391 8.79065 198 ft 0 kts 228°